Weather History for Madisonville, KY

Change the Weather History Date:

Thursday, January 17, 2013

  Actual Average (KOWB) Record (KOWB)
Temperature  
Mean Temperature 38 °F -  
Max Temperature 47 °F 40 °F 69 °F (1952)
Min Temperature 30 °F 24 °F -16 °F (1982)
Degree Days  
Heating Degree Days 26    
Moisture  
Dew Point 32 °F    
Average Humidity 87    
Maximum Humidity 100    
Minimum Humidity 71    
Precipitation  
Precipitation 0.00 in - - ()
Sea Level Pressure  
Sea Level Pressure 30.22 in    
Wind  
Wind Speed 5 mph (North)    
Max Wind Speed 25 mph    
Max Gust Speed 32 mph    
Visibility 8 miles    
Events      
Averages and records for this station are not official NWS values.
T = Trace of Precipitation, MM = Missing Value Source: NWS Daily Summary

Daily Weather History Graph

Daily Weather History Graph

Search for Another Location

Airport:

Trip Planner

Search our weather history database for the weather conditions in past years. The results will help you decide how hot, cold, wet, or windy it might be!

Date:

Astronomy

Jan. 17, 2013 Rise Set
Actual Time 7:01 AM CST 4:58 PM CST
Civil Twilight 6:33 AM CST 5:26 PM CST
Nautical Twilight 6:01 AM CST 5:58 PM CST
Astronomical Twilight 5:30 AM CST 6:29 PM CST
Moon 10:17 AM CST (1/17) 11:38 PM CST (1/17)
Length of Visible Light 10h 52m
Length of Day
9h 56m
Waxing Crescent, 38% of the Moon is Illuminated
Jan 17
Waxing Crescent
Jan 18
First Quarter
Jan 26
Full
Feb 3
Last Quarter
Feb 10
New

Hourly Weather History & Observations

Time (CST) Temp. Windchill Dew Point Humidity Pressure Visibility Wind Dir Wind Speed Gust Speed Precip Events Conditions
12:15 AM 31.8 °F - 31.8 °F 100% 30.14 in 5.0 mi Calm Calm - N/A   Clear
12:35 AM 31.5 °F - 31.3 °F 99% 30.15 in 5.0 mi Calm Calm - N/A   Clear
12:55 AM 31.8 °F - 31.5 °F 99% 30.16 in 5.0 mi Calm Calm - N/A   Clear
1:15 AM 31.6 °F - 31.1 °F 98% 30.16 in 5.0 mi Calm Calm - N/A   Scattered Clouds
1:35 AM 31.6 °F - 31.1 °F 98% 30.16 in 5.0 mi Calm Calm - N/A   Scattered Clouds
1:55 AM 31.5 °F - 31.1 °F 99% 30.15 in 5.0 mi Calm Calm - N/A   Scattered Clouds
2:15 AM 31.1 °F - 31.1 °F 100% 30.15 in 4.0 mi Calm Calm - N/A   Scattered Clouds
2:35 AM 30.9 °F - 30.9 °F 100% 30.15 in 4.0 mi Calm Calm - N/A   Clear
2:55 AM 30.7 °F - 30.7 °F 100% 30.14 in 4.0 mi Calm Calm - N/A   Clear
3:35 AM 30.4 °F 25.6 °F 30.4 °F 100% 30.14 in 3.0 mi North 4.6 mph - N/A   Clear
3:55 AM 30.6 °F - 30.6 °F 100% 30.14 in 4.0 mi Calm Calm - N/A   Clear
4:15 AM 31.1 °F 27.7 °F 31.1 °F 100% 30.14 in 5.0 mi NNE 3.5 mph - N/A   Clear
4:35 AM 31.1 °F 26.4 °F 30.9 °F 99% 30.14 in 5.0 mi NE 4.6 mph - N/A   Clear
4:55 AM 30.7 °F 23.3 °F 29.8 °F 96% 30.13 in 7.0 mi North 8.1 mph - N/A   Clear
5:15 AM 31.1 °F 26.4 °F 29.8 °F 95% 30.13 in 7.0 mi NNE 4.6 mph - N/A   Mostly Cloudy
5:35 AM 31.6 °F 27.0 °F 29.8 °F 93% 30.13 in 7.0 mi NE 4.6 mph - N/A   Overcast
5:55 AM 32.0 °F - 30.0 °F 92% 30.14 in 10.0 mi Calm Calm - N/A   Overcast
6:15 AM 32.0 °F - 30.6 °F 94% 30.15 in 10.0 mi Calm Calm - N/A   Overcast
6:35 AM 32.0 °F - 30.9 °F 96% 30.16 in 7.0 mi Calm Calm - N/A   Overcast
6:55 AM 32.0 °F - 31.1 °F 96% 30.17 in 7.0 mi Calm Calm - N/A   Overcast
7:15 AM 32.0 °F - 31.1 °F 96% 30.19 in 7.0 mi Calm Calm - N/A   Overcast
7:35 AM 32.0 °F - 30.7 °F 95% 30.20 in 7.0 mi Calm Calm - N/A   Overcast
7:55 AM 31.5 °F 28.1 °F 30.4 °F 96% 30.21 in 5.0 mi North 3.5 mph - N/A   Scattered Clouds
8:15 AM 31.6 °F 27.0 °F 29.3 °F 91% 30.22 in 10.0 mi North 4.6 mph - N/A   Clear
8:35 AM 32.2 °F 27.7 °F 30.2 °F 92% 30.23 in 7.0 mi North 4.6 mph - N/A   Clear
8:55 AM 34.0 °F 26.0 °F 31.1 °F 89% 30.21 in 10.0 mi North 10.4 mph - N/A   Clear
9:15 AM 35.6 °F 28.6 °F 31.6 °F 85% 30.22 in 10.0 mi NNE 9.2 mph - N/A   Clear
9:35 AM 36.9 °F 28.7 °F 32.0 °F 83% 30.22 in 10.0 mi NNE 12.7 mph - N/A   Clear
9:55 AM 37.9 °F 31.5 °F 32.2 °F 80% 30.21 in 10.0 mi NNE 9.2 mph - N/A   Clear
10:15 AM 38.8 °F 32.6 °F 32.9 °F 79% 30.21 in 10.0 mi NNE 9.2 mph - N/A   Clear
10:35 AM 39.2 °F 33.0 °F 32.9 °F 78% 30.20 in 10.0 mi NNE 9.2 mph - N/A   Clear
10:55 AM 40.1 °F 33.6 °F 33.6 °F 78% 30.20 in 10.0 mi North 10.4 mph - N/A   Clear
11:15 AM 42.1 °F 36.6 °F 35.1 °F 76% 30.19 in 10.0 mi North 9.2 mph - N/A   Clear
11:35 AM 41.5 °F 34.2 °F 34.3 °F 76% 30.18 in 10.0 mi North 13.8 mph - N/A   Clear
11:55 AM 42.4 °F 35.3 °F 35.2 °F 76% 30.17 in 10.0 mi North 13.8 mph - N/A   Clear
12:15 PM 43.9 °F 37.5 °F 36.3 °F 75% 30.16 in 10.0 mi NNE 12.7 mph - N/A   Clear
12:35 PM 45.3 °F 39.7 °F 37.2 °F 73% 30.16 in 10.0 mi NNE 11.5 mph - N/A   Clear
12:55 PM 46.4 °F 39.8 °F 37.9 °F 72% 30.16 in 10.0 mi North 16.1 mph - N/A   Clear
1:15 PM 47.3 °F - 38.8 °F 72% 30.15 in 10.0 mi North 19.6 mph 27.6 mph N/A   Clear
1:35 PM 47.3 °F - 38.7 °F 72% 30.16 in 10.0 mi North 15.0 mph - N/A   Scattered Clouds
1:55 PM 46.8 °F - 38.7 °F 73% 30.17 in 10.0 mi North 17.3 mph 23.0 mph N/A   Mostly Cloudy
2:15 PM 46.4 °F 39.2 °F 38.7 °F 74% 30.18 in 10.0 mi North 18.4 mph 21.9 mph N/A   Overcast
2:35 PM 46.0 °F 37.4 °F 37.0 °F 71% 30.19 in 10.0 mi North 25.3 mph 32.2 mph N/A   Mostly Cloudy
2:55 PM 45.9 °F 38.3 °F 37.8 °F 73% 30.19 in 10.0 mi North 19.6 mph 28.8 mph N/A   Scattered Clouds
3:15 PM 46.0 °F 39.0 °F 37.9 °F 73% 30.21 in 10.0 mi NNW 17.3 mph 23.0 mph N/A   Scattered Clouds
3:35 PM 45.9 °F 38.5 °F 37.8 °F 73% 30.22 in 10.0 mi North 18.4 mph 24.2 mph N/A   Scattered Clouds
3:55 PM 45.0 °F 37.6 °F 36.9 °F 73% 30.24 in 10.0 mi NNW 17.3 mph 24.2 mph N/A   Clear
4:55 PM 41.2 °F 34.1 °F 33.8 °F 75% 30.30 in 10.0 mi NNW 12.7 mph 21.9 mph N/A   Clear
5:35 PM 39.2 °F 31.2 °F 31.1 °F 73% 30.33 in 10.0 mi NNW 13.8 mph 18.4 mph N/A   Clear
7:55 PM 35.1 °F 29.3 °F 31.5 °F 87% 30.42 in 10.0 mi NNW 6.9 mph - N/A   Clear
8:15 PM 34.7 °F 28.1 °F 30.9 °F 86% 30.43 in 10.0 mi NNW 8.1 mph - N/A   Clear
8:55 PM 34.2 °F 27.5 °F 30.2 °F 85% 30.45 in 10.0 mi NNW 8.1 mph - N/A   Clear
9:15 PM 33.8 °F 27.7 °F 29.7 °F 85% 30.45 in 10.0 mi NNW 6.9 mph - N/A   Clear
9:55 PM 33.1 °F 26.1 °F 29.3 °F 86% 30.45 in 10.0 mi NNW 8.1 mph - N/A   Clear
11:15 PM 31.8 °F 27.3 °F 28.4 °F 87% 30.47 in 10.0 mi NNW 4.6 mph - N/A   Clear
11:35 PM 31.6 °F 28.3 °F 27.5 °F 85% 30.47 in 10.0 mi North 3.5 mph - N/A   Clear
11:55 PM 31.1 °F 25.4 °F 27.1 °F 85% 30.47 in 10.0 mi NNW 5.8 mph - N/A   Clear